Regional Weather Roundup
Issued by NWS Jackson, KY

Home | Current Version | Previous Version | Graphics & Text | Print | Product List | Glossary On
Versions: 1 2 3 4 5 6 7 8 9 10 11 12 13 14 15 16 17 18 19 20 21 22 23 24 25 26 27 28 29 30 31 32 33 34 35 36 37 38 39 40 41 42 43 44 45 46 47 48 49 50
000
ASUS43 KJKL 210310
RWRJKL

EAST KENTUCKY HOURLY WEATHER ROUNDUP
NATIONAL WEATHER SERVICE JACKSON KY
1100 PM EDT SUN MAY 20 2018

NOTE: "FAIR" INDICATES FEW OR NO CLOUDS BELOW 12,000 FEET WITH
NO SIGNIFICANT WEATHER AND/OR OBSTRUCTIONS TO VISIBILITY.

* THESE REPORTS ARE NOT UNDER NWS QUALITY CONTROL AND MAY NOT
  REPORT WEATHER SUCH AS PRECIPITATION AND FOG.

KYZ079-080-083-085-087-088-110-112-115-119-120-210400
...EASTERN KENTUCKY...

CITY           SKY/WX    TMP DP  RH WIND       PRES   REMARKS
JACKSON          N/A     75  62  64 CALM      30.16R
LONDON           N/A     71  66  84 CALM      30.15R
SOMERSET*        N/A     70  68  94 MISG      30.16R
MONTICELLO*      N/A     70  66  87 W10       30.17R
WILLIAMSBURG*    N/A     68  68 100 CALM      30.16R
MIDDLESBORO*     N/A     70  65  84 CALM      30.17R
HARLAN APT*      N/A     68  67  95 CALM      30.18R
PIKE CO APT*     N/A     74  66  77 CALM      30.16R
BIG SANDY APT*   N/A     71  71  98 CALM      30.15R
MOREHEAD APT*    N/A     73  64  73 S7        30.14R
ASHLAND*       LGT RAIN  70  68  93 CALM      30.08F
$$

KYZ035-036-041-042-044-050-067-078-099-210400
...CENTRAL KENTUCKY...

CITY           SKY/WX    TMP DP  RH WIND       PRES   REMARKS
MT STERLING*     N/A     70  68  94 CALM      30.14F
FLEMING/MASON*   N/A     70  65  84 CALM      30.13R
DANVILLE*        N/A     70  66  88 CALM      30.15R
LEXINGTON        N/A     76  65  68 S6        30.12R
FRANKFORT        N/A     75  66  73 CALM      30.09R
LOUISVILLE     CLOUDY    81  65  58 SW10      30.08R
LEBANON*         N/A     75  66  73 CALM      30.13R
GLASGOW*       TSTM      67  63  87 W5        30.17R
BOWLING GREEN  LGT RAIN  69  68  96 E8        30.17F
$$

KYZ091>093-OHZ055-061-077-WVZ005-015-034-035-042-210400
...SOUTHERN OHIO/WEST VIRGINIA...

CITY           SKY/WX    TMP DP  RH WIND       PRES   REMARKS
COVINGTON      MOCLDY    70  64  81 E5        30.11R
COLUMBUS         N/A     67  59  75 NE6       30.13R
DAYTON         CLOUDY    66  63  90 NE7       30.13R
WILMINGTON       N/A     67  66  97 CALM      30.12R
HUNTINGTON       N/A     73  65  75 S5        30.11R
CHARLESTON       N/A     70  68  93 SE3       30.11R
PINEVILLE*       N/A     66  64  94 MISG      30.22R
BECKLEY          N/A     66  61  84 CALM      30.20R
BLUEFIELD        N/A     67  62  84 W6        30.23R
LOGAN CO APT*    N/A     72  66  83 CALM      30.16R
$$

VAZ002-007-008-TNZ017-027-036-066-071-210400
...SOUTHWEST VIRGINIA/EAST TENNESSEE...

CITY           SKY/WX    TMP DP  RH WIND       PRES   REMARKS
WISE*            N/A     70  63  78 CALM      30.24R
JONESVILLE*      N/A     68  66  94 CALM      30.19R
ABINGDON*        N/A     71  69  92 CALM      30.20R
BRISTOL        MOCLDY    69  69 100 CALM      30.17R
MORRISTOWN*    CLEAR     73  68  83 CALM      30.15R
SEVIERVILLE*   CLEAR     73  70  88 CALM      30.14R
KNOXVILLE      MOCLDY    76  69  79 W7        30.13R
LAFOLLETTE*    CLEAR     68  66  94 CALM      30.19R
OAK RIDGE        N/A     73  71  93 CALM      30.15R
CROSSVILLE       N/A     67  65  93 CALM      30.21R
NASHVILLE      CLOUDY    69  66  90 W7        30.16R
$$

...KEY TO REMARKS...
VSB - VISIBILITY IN MILES
WCI - WIND CHILL INDEX
HX  - HEAT INDEX

$$



USA.gov is the U.S. government's official web portal to all federal, state and local government web resources and services.